B. E. Lindholm — WCY9878 — position and weather

sailwx.info

Track history (hours):
 
Tides and Currents Weather Stations Pressure Air Temp Water Temp Dewpoint Dewpoint Depression Visibility Wind Speed Wind Dir Waves Ship Positions

B. E. Lindholm

Owner: WEEKS MARINE, INC., CRANFORD, NJ. More information available from US FCC via Universal Licensing System.

Last reported at 2017-Nov-18 20:17 UTC. Time now 2017-Nov-20 14:01 UTC.
Position N 38°51' W 074°50'.

Length 91 m; draft 5.2 m.

Type: Dredging. MMSI: 368954410.

Date/timePositionNaut miles runAvg speedWind from/ knotsBaromVisibWave heightAir tempDewpointWater temp
2017-Nov-18 20:17N 38°51' W 074°50'2 5.9
2017-Nov-18 19:56N 38°52' W 074°48'3 6.0
2017-Nov-18 19:30N 38°55' W 074°46'27 6.6
2017-Nov-18 15:27N 39°18' W 074°29'4 6.3
2017-Nov-18 14:52N 39°19' W 074°25'0 0.2
2017-Nov-18 14:15N 39°19' W 074°25'0 0.6
2017-Nov-18 13:56N 39°19' W 074°24'0 0.6
2017-Nov-18 13:30N 39°19' W 074°25'0 0.9
2017-Nov-18 12:56N 39°19' W 074°24'0 0.8
2017-Nov-18 12:23N 39°19' W 074°23'0 1.0
2017-Nov-18 11:59N 39°19' W 074°23'0 0.9
2017-Nov-18 11:28N 39°20' W 074°22'511.7
2017-Nov-18 11:00N 39°22' W 074°16'611.1
2017-Nov-18 10:28N 39°26' W 074°11'612.1
2017-Nov-18 10:00N 39°31' W 074°07'612.0
2017-Nov-18 09:29N 39°37' W 074°03'612.2
2017-Nov-18 09:00N 39°42' W 074°01'612.1
2017-Nov-18 08:30N 39°48' W 073°58'611.7
2017-Nov-18 07:59N 39°54' W 073°57'2910.8
2017-Nov-18 05:16N 40°23' W 073°54'2 9.5
2017-Nov-18 05:00N 40°26' W 073°55'5 9.2
2017-Nov-18 04:30N 40°29' W 073°59'612.3
2017-Nov-18 04:00N 40°30' W 074°07'6 6.2
2017-Nov-18 03:01N 40°32' W 074°15'0 6.2
2017-Nov-18 03:00N 40°32' W 074°15'3 5.0
2017-Nov-18 02:29N 40°34' W 074°13'3 5.4
2017-Nov-18 02:00N 40°36' W 074°12'2 3.9
2017-Nov-18 01:30N 40°38' W 074°12'0 0.0
2017-Nov-18 01:00N 40°38' W 074°12'0 0.0
2017-Nov-18 00:29N 40°38' W 074°12'0 0.0
2017-Nov-17 23:59N 40°38' W 074°12'0 0.0
2017-Nov-17 23:29N 40°38' W 074°12'0 0.0
2017-Nov-17 22:59N 40°38' W 074°12'0 0.0
2017-Nov-17 22:23N 40°38' W 074°12'0 0.0
2017-Nov-17 21:59N 40°38' W 074°12'0 0.0
2017-Nov-17 21:23N 40°38' W 074°12'0 0.0
2017-Nov-17 20:59N 40°38' W 074°12'0 0.0
2017-Nov-17 20:29N 40°38' W 074°12'0 0.0
2017-Nov-17 19:44N 40°38' W 074°12'0 0.0
2017-Nov-17 19:29N 40°38' W 074°12'0 0.0
2017-Nov-17 18:59N 40°38' W 074°12'0 0.0
2017-Nov-17 18:29N 40°38' W 074°12'0 0.0
2017-Nov-17 17:59N 40°38' W 074°12'0 0.0
2017-Nov-17 17:29N 40°38' W 074°12'0 0.0
2017-Nov-17 16:59N 40°38' W 074°12'0 0.0
2017-Nov-17 16:29N 40°38' W 074°12'0 0.0
2017-Nov-17 15:59N 40°38' W 074°12'0 0.0
2017-Nov-17 15:26N 40°38' W 074°12'0 0.0
2017-Nov-17 14:50N 40°38' W 074°12'0 0.0
2017-Nov-17 14:29N 40°38' W 074°12'0 0.0
2017-Nov-17 13:53N 40°38' W 074°12'0 0.0
2017-Nov-17 13:29N 40°38' W 074°12'0 0.0
2017-Nov-17 12:59N 40°38' W 074°12'0 0.0
2017-Nov-17 12:30N 40°38' W 074°12'0 0.0
2017-Nov-17 12:00N 40°38' W 074°12'2 4.1
2017-Nov-17 11:30N 40°36' W 074°12'3 6.0
2017-Nov-17 11:00N 40°33' W 074°14'3 2.8
2017-Nov-17 09:48N 40°30' W 074°12'2 6.7
2017-Nov-17 09:30N 40°30' W 074°09'4 7.4
2017-Nov-17 09:00N 40°29' W 074°04'3 6.8
2017-Nov-17 08:30N 40°29' W 073°60'3 6.7
2017-Nov-17 08:00N 40°27' W 073°56'4 6.5
2017-Nov-17 07:27N 40°24' W 073°55'3 5.7
2017-Nov-17 06:57N 40°21' W 073°55'29 6.5
2017-Nov-17 02:23N 39°52' W 073°57'2 6.3
2017-Nov-17 02:00N 39°49' W 073°57'3 6.4
2017-Nov-17 01:30N 39°46' W 073°58'3 6.6
2017-Nov-17 00:58N 39°43' W 073°59'3 6.5
2017-Nov-17 00:29N 39°40' W 074°01'3 6.3
2017-Nov-17 00:00N 39°37' W 074°03'4 6.4
2017-Nov-16 23:24N 39°34' W 074°05'4 6.4
2017-Nov-16 22:50N 39°31' W 074°07'16 1.8
2017-Nov-16 13:48N 39°19' W 074°22'0 0.5
2017-Nov-16 13:24N 39°20' W 074°22'0 0.7
2017-Nov-16 12:53N 39°20' W 074°23'0 1.0
2017-Nov-16 12:29N 39°19' W 074°23'1 1.3
2017-Nov-16 11:59N 39°19' W 074°24'4 5.2
2017-Nov-16 11:13N 39°18' W 074°29'1 2.9
2017-Nov-16 10:52N 39°18' W 074°30'0 0.1
2017-Nov-16 10:21N 39°18' W 074°30'0 0.0
2017-Nov-16 09:55N 39°18' W 074°30'5 0.5
2017-Nov-16 00:47N 39°19' W 074°24'0 0.7
2017-Nov-16 00:30N 39°19' W 074°25'5 7.7
2017-Nov-15 23:55N 39°18' W 074°30'0 0.0
2017-Nov-15 23:26N 39°18' W 074°30'6 0.8
2017-Nov-15 15:32N 39°20' W 074°22'0 0.5
2017-Nov-15 14:44N 39°19' W 074°23'6 4.0
2017-Nov-15 13:12N 39°18' W 074°30'0 0.0
2017-Nov-15 12:42N 39°18' W 074°30'0 0.0
2017-Nov-15 08:04N 39°18' W 074°30'0 0.0
2017-Nov-15 07:36N 39°18' W 074°30'5 0.3
2017-Nov-14 13:26N 39°19' W 074°24'0 0.9
2017-Nov-14 13:00N 39°19' W 074°25'5 7.0
2017-Nov-14 12:21N 39°18' W 074°30'0 0.3
2017-Nov-14 11:55N 39°18' W 074°30'0 0.0
2017-Nov-14 11:31N 39°18' W 074°30'0 0.1
2017-Nov-14 10:59N 39°18' W 074°30'4 8.1
2017-Nov-14 10:28N 39°19' W 074°25'2 3.3
2017-Nov-14 09:59N 39°19' W 074°23'0 0.9
2017-Nov-14 09:30N 39°20' W 074°23'0 0.3
2017-Nov-14 09:00N 39°20' W 074°23'1 1.0
2017-Nov-14 08:30N 39°19' W 074°23'1 1.1
2017-Nov-14 08:00N 39°19' W 074°24'1 1.0
2017-Nov-14 07:31N 39°19' W 074°25'4 8.8
2017-Nov-14 07:01N 39°17' W 074°30'0 1.0
2017-Nov-14 06:30N 39°18' W 074°30'0 0.0
2017-Nov-14 06:00N 39°18' W 074°30'0 0.3
2017-Nov-14 05:30N 39°18' W 074°30'5 9.4
2017-Nov-14 05:01N 39°19' W 074°24'1 2.6
2017-Nov-14 04:29N 39°19' W 074°23'1 0.7
2017-Nov-14 03:42N 39°19' W 074°23'0 0.8
2017-Nov-14 03:13N 39°19' W 074°24'0 0.7
2017-Nov-14 02:59N 39°19' W 074°24'4 6.0
2017-Nov-14 02:19N 39°18' W 074°29'1 2.9
2017-Nov-14 01:59N 39°18' W 074°30'0 0.0
2017-Nov-14 01:26N 39°18' W 074°30'0 0.0
2017-Nov-14 01:01N 39°18' W 074°30'1 1.1
2017-Nov-14 00:28N 39°17' W 074°29'611.3
2017-Nov-13 23:58N 39°19' W 074°22'0 0.3
2017-Nov-13 23:27N 39°19' W 074°22'0 0.2
2017-Nov-13 23:00N 39°19' W 074°23'6 0.3
2017-Nov-13 02:01N 39°18' W 074°30'0 0.0
2017-Nov-13 01:27N 39°18' W 074°30'1 1.2
2017-Nov-13 01:00N 39°17' W 074°30'6 4.0
2017-Nov-12 23:37N 39°19' W 074°23'0 0.8
2017-Nov-12 23:01N 39°19' W 074°24'0 0.8
2017-Nov-12 23:00N 39°19' W 074°24'1 0.9
2017-Nov-12 22:22N 39°19' W 074°24'5 9.5
2017-Nov-12 21:51N 39°18' W 074°30'5 1.3
2017-Nov-12 18:02N 39°19' W 074°24'0 0.7
2017-Nov-12 17:51N 39°19' W 074°24'0 0.7
2017-Nov-12 17:25N 39°19' W 074°25'4 4.6
2017-Nov-12 16:28N 39°18' W 074°30'0 0.0
2017-Nov-12 15:49N 39°18' W 074°30'0 0.2
2017-Nov-12 15:30N 39°18' W 074°30'6 8.3
2017-Nov-12 14:44N 39°19' W 074°22'1 0.8
2017-Nov-12 13:50N 39°19' W 074°23'1 0.9
2017-Nov-12 13:13N 39°19' W 074°24'5 5.4
2017-Nov-12 12:17N 39°17' W 074°30'5 2.0
2017-Nov-12 09:48N 39°19' W 074°24'0 0.6
2017-Nov-12 09:29N 39°19' W 074°24'0 0.7
2017-Nov-12 09:00N 39°19' W 074°23'4 2.8
2017-Nov-12 07:30N 39°18' W 074°28'1 1.2
2017-Nov-12 06:17N 39°18' W 074°30'5 3.2
2017-Nov-12 04:35N 39°19' W 074°24'1 1.0
2017-Nov-12 04:02N 39°19' W 074°23'5 0.3
2017-Nov-11 12:53N 39°18' W 074°28'1 3.0
2017-Nov-11 12:26N 39°18' W 074°30'3 0.1
2017-Nov-10 10:54N 39°18' W 074°27'3 2.0
2017-Nov-10 09:31N 39°19' W 074°24'0 0.7
2017-Nov-10 09:00N 39°19' W 074°23'0 0.7
2017-Nov-10 08:28N 39°20' W 074°23'3 6.4
2017-Nov-10 07:56N 39°18' W 074°27'3 6.6
2017-Nov-10 07:31N 39°18' W 074°30'0 0.0
2017-Nov-10 07:00N 39°18' W 074°30'0 0.1
2017-Nov-10 06:30N 39°18' W 074°30'3 5.2
2017-Nov-10 06:01N 39°18' W 074°27'3 0.9
2017-Nov-10 03:13N 39°18' W 074°30'0 0.1
2017-Nov-10 02:29N 39°18' W 074°30'36 2.0
2017-Nov-09 08:39N 38°53' W 075°04'2 9.9
2017-Nov-09 08:30N 38°54' W 075°03'3 1.3
2017-Nov-09 06:09N 38°57' W 075°01'0 0.0
2017-Nov-09 05:42N 38°57' W 075°01'0 0.0
2017-Nov-09 05:18N 38°57' W 075°01'0 0.0
2017-Nov-09 05:00N 38°57' W 075°01'0 0.0
2017-Nov-09 00:48N 38°57' W 075°01'0 0.0
2017-Nov-09 00:23N 38°57' W 075°01'0 0.0
2017-Nov-08 23:48N 38°57' W 075°01'  
Track history (hours):
 
Tides and Currents Weather Stations Pressure Air Temp Water Temp Dewpoint Dewpoint Depression Visibility Wind Speed Wind Dir Waves Ship Positions

B. E. Lindholm

Owner: WEEKS MARINE, INC., CRANFORD, NJ. More information available from US FCC via Universal Licensing System.

Last reported at 2017-Nov-18 20:17 UTC. Time now 2017-Nov-20 14:01 UTC.
Position N 38°51' W 074°50'.

Length 91 m; draft 5.2 m.

Type: Dredging. MMSI: 368954410.

Date/timePositionNaut miles runAvg speedWind from/ knotsBaromVisibWave heightAir tempDewpointWater temp
2017-Nov-18 20:17N 38°51' W 074°50'2 5.9
2017-Nov-18 19:56N 38°52' W 074°48'3 6.0
2017-Nov-18 19:30N 38°55' W 074°46'27 6.6
2017-Nov-18 15:27N 39°18' W 074°29'4 6.3
2017-Nov-18 14:52N 39°19' W 074°25'0 0.2
2017-Nov-18 14:15N 39°19' W 074°25'0 0.6
2017-Nov-18 13:56N 39°19' W 074°24'0 0.6
2017-Nov-18 13:30N 39°19' W 074°25'0 0.9
2017-Nov-18 12:56N 39°19' W 074°24'0 0.8
2017-Nov-18 12:23N 39°19' W 074°23'0 1.0
2017-Nov-18 11:59N 39°19' W 074°23'0 0.9
2017-Nov-18 11:28N 39°20' W 074°22'511.7
2017-Nov-18 11:00N 39°22' W 074°16'611.1
2017-Nov-18 10:28N 39°26' W 074°11'612.1
2017-Nov-18 10:00N 39°31' W 074°07'612.0
2017-Nov-18 09:29N 39°37' W 074°03'612.2
2017-Nov-18 09:00N 39°42' W 074°01'612.1
2017-Nov-18 08:30N 39°48' W 073°58'611.7
2017-Nov-18 07:59N 39°54' W 073°57'2910.8
2017-Nov-18 05:16N 40°23' W 073°54'2 9.5
2017-Nov-18 05:00N 40°26' W 073°55'5 9.2
2017-Nov-18 04:30N 40°29' W 073°59'612.3
2017-Nov-18 04:00N 40°30' W 074°07'6 6.2
2017-Nov-18 03:01N 40°32' W 074°15'0 6.2
2017-Nov-18 03:00N 40°32' W 074°15'3 5.0
2017-Nov-18 02:29N 40°34' W 074°13'3 5.4
2017-Nov-18 02:00N 40°36' W 074°12'2 3.9
2017-Nov-18 01:30N 40°38' W 074°12'0 0.0
2017-Nov-18 01:00N 40°38' W 074°12'0 0.0
2017-Nov-18 00:29N 40°38' W 074°12'0 0.0
2017-Nov-17 23:59N 40°38' W 074°12'0 0.0
2017-Nov-17 23:29N 40°38' W 074°12'0 0.0
2017-Nov-17 22:59N 40°38' W 074°12'0 0.0
2017-Nov-17 22:23N 40°38' W 074°12'0 0.0
2017-Nov-17 21:59N 40°38' W 074°12'0 0.0
2017-Nov-17 21:23N 40°38' W 074°12'0 0.0
2017-Nov-17 20:59N 40°38' W 074°12'0 0.0
2017-Nov-17 20:29N 40°38' W 074°12'0 0.0
2017-Nov-17 19:44N 40°38' W 074°12'0 0.0
2017-Nov-17 19:29N 40°38' W 074°12'0 0.0
2017-Nov-17 18:59N 40°38' W 074°12'0 0.0
2017-Nov-17 18:29N 40°38' W 074°12'0 0.0
2017-Nov-17 17:59N 40°38' W 074°12'0 0.0
2017-Nov-17 17:29N 40°38' W 074°12'0 0.0
2017-Nov-17 16:59N 40°38' W 074°12'0 0.0
2017-Nov-17 16:29N 40°38' W 074°12'0 0.0
2017-Nov-17 15:59N 40°38' W 074°12'0 0.0
2017-Nov-17 15:26N 40°38' W 074°12'0 0.0
2017-Nov-17 14:50N 40°38' W 074°12'0 0.0
2017-Nov-17 14:29N 40°38' W 074°12'0 0.0
2017-Nov-17 13:53N 40°38' W 074°12'0 0.0
2017-Nov-17 13:29N 40°38' W 074°12'0 0.0
2017-Nov-17 12:59N 40°38' W 074°12'0 0.0
2017-Nov-17 12:30N 40°38' W 074°12'0 0.0
2017-Nov-17 12:00N 40°38' W 074°12'2 4.1
2017-Nov-17 11:30N 40°36' W 074°12'3 6.0
2017-Nov-17 11:00N 40°33' W 074°14'3 2.8
2017-Nov-17 09:48N 40°30' W 074°12'2 6.7
2017-Nov-17 09:30N 40°30' W 074°09'4 7.4
2017-Nov-17 09:00N 40°29' W 074°04'3 6.8
2017-Nov-17 08:30N 40°29' W 073°60'3 6.7
2017-Nov-17 08:00N 40°27' W 073°56'4 6.5
2017-Nov-17 07:27N 40°24' W 073°55'3 5.7
2017-Nov-17 06:57N 40°21' W 073°55'29 6.5
2017-Nov-17 02:23N 39°52' W 073°57'2 6.3
2017-Nov-17 02:00N 39°49' W 073°57'3 6.4
2017-Nov-17 01:30N 39°46' W 073°58'3 6.6
2017-Nov-17 00:58N 39°43' W 073°59'3 6.5
2017-Nov-17 00:29N 39°40' W 074°01'3 6.3
2017-Nov-17 00:00N 39°37' W 074°03'4 6.4
2017-Nov-16 23:24N 39°34' W 074°05'4 6.4
2017-Nov-16 22:50N 39°31' W 074°07'16 1.8
2017-Nov-16 13:48N 39°19' W 074°22'0 0.5
2017-Nov-16 13:24N 39°20' W 074°22'0 0.7
2017-Nov-16 12:53N 39°20' W 074°23'0 1.0
2017-Nov-16 12:29N 39°19' W 074°23'1 1.3
2017-Nov-16 11:59N 39°19' W 074°24'4 5.2
2017-Nov-16 11:13N 39°18' W 074°29'1 2.9
2017-Nov-16 10:52N 39°18' W 074°30'0 0.1
2017-Nov-16 10:21N 39°18' W 074°30'0 0.0
2017-Nov-16 09:55N 39°18' W 074°30'5 0.5
2017-Nov-16 00:47N 39°19' W 074°24'0 0.7
2017-Nov-16 00:30N 39°19' W 074°25'5 7.7
2017-Nov-15 23:55N 39°18' W 074°30'0 0.0
2017-Nov-15 23:26N 39°18' W 074°30'6 0.8
2017-Nov-15 15:32N 39°20' W 074°22'0 0.5
2017-Nov-15 14:44N 39°19' W 074°23'6 4.0
2017-Nov-15 13:12N 39°18' W 074°30'0 0.0
2017-Nov-15 12:42N 39°18' W 074°30'0 0.0
2017-Nov-15 08:04N 39°18' W 074°30'0 0.0
2017-Nov-15 07:36N 39°18' W 074°30'5 0.3
2017-Nov-14 13:26N 39°19' W 074°24'0 0.9
2017-Nov-14 13:00N 39°19' W 074°25'5 7.0
2017-Nov-14 12:21N 39°18' W 074°30'0 0.3
2017-Nov-14 11:55N 39°18' W 074°30'0 0.0
2017-Nov-14 11:31N 39°18' W 074°30'0 0.1
2017-Nov-14 10:59N 39°18' W 074°30'4 8.1
2017-Nov-14 10:28N 39°19' W 074°25'2 3.3
2017-Nov-14 09:59N 39°19' W 074°23'0 0.9
2017-Nov-14 09:30N 39°20' W 074°23'0 0.3
2017-Nov-14 09:00N 39°20' W 074°23'1 1.0
2017-Nov-14 08:30N 39°19' W 074°23'1 1.1
2017-Nov-14 08:00N 39°19' W 074°24'1 1.0
2017-Nov-14 07:31N 39°19' W 074°25'4 8.8
2017-Nov-14 07:01N 39°17' W 074°30'0 1.0
2017-Nov-14 06:30N 39°18' W 074°30'0 0.0
2017-Nov-14 06:00N 39°18' W 074°30'0 0.3
2017-Nov-14 05:30N 39°18' W 074°30'5 9.4
2017-Nov-14 05:01N 39°19' W 074°24'1 2.6
2017-Nov-14 04:29N 39°19' W 074°23'1 0.7
2017-Nov-14 03:42N 39°19' W 074°23'0 0.8
2017-Nov-14 03:13N 39°19' W 074°24'0 0.7
2017-Nov-14 02:59N 39°19' W 074°24'4 6.0
2017-Nov-14 02:19N 39°18' W 074°29'1 2.9
2017-Nov-14 01:59N 39°18' W 074°30'0 0.0
2017-Nov-14 01:26N 39°18' W 074°30'0 0.0
2017-Nov-14 01:01N 39°18' W 074°30'1 1.1
2017-Nov-14 00:28N 39°17' W 074°29'611.3
2017-Nov-13 23:58N 39°19' W 074°22'0 0.3
2017-Nov-13 23:27N 39°19' W 074°22'0 0.2
2017-Nov-13 23:00N 39°19' W 074°23'6 0.3
2017-Nov-13 02:01N 39°18' W 074°30'0 0.0
2017-Nov-13 01:27N 39°18' W 074°30'1 1.2
2017-Nov-13 01:00N 39°17' W 074°30'6 4.0
2017-Nov-12 23:37N 39°19' W 074°23'0 0.8
2017-Nov-12 23:01N 39°19' W 074°24'0 0.8
2017-Nov-12 23:00N 39°19' W 074°24'1 0.9
2017-Nov-12 22:22N 39°19' W 074°24'5 9.5
2017-Nov-12 21:51N 39°18' W 074°30'5 1.3
2017-Nov-12 18:02N 39°19' W 074°24'0 0.7
2017-Nov-12 17:51N 39°19' W 074°24'0 0.7
2017-Nov-12 17:25N 39°19' W 074°25'4 4.6
2017-Nov-12 16:28N 39°18' W 074°30'0 0.0
2017-Nov-12 15:49N 39°18' W 074°30'0 0.2
2017-Nov-12 15:30N 39°18' W 074°30'6 8.3
2017-Nov-12 14:44N 39°19' W 074°22'1 0.8
2017-Nov-12 13:50N 39°19' W 074°23'1 0.9
2017-Nov-12 13:13N 39°19' W 074°24'5 5.4
2017-Nov-12 12:17N 39°17' W 074°30'5 2.0
2017-Nov-12 09:48N 39°19' W 074°24'0 0.6
2017-Nov-12 09:29N 39°19' W 074°24'0 0.7
2017-Nov-12 09:00N 39°19' W 074°23'4 2.8
2017-Nov-12 07:30N 39°18' W 074°28'1 1.2
2017-Nov-12 06:17N 39°18' W 074°30'5 3.2
2017-Nov-12 04:35N 39°19' W 074°24'1 1.0
2017-Nov-12 04:02N 39°19' W 074°23'5 0.3
2017-Nov-11 12:53N 39°18' W 074°28'1 3.0
2017-Nov-11 12:26N 39°18' W 074°30'3 0.1
2017-Nov-10 10:54N 39°18' W 074°27'3 2.0
2017-Nov-10 09:31N 39°19' W 074°24'0 0.7
2017-Nov-10 09:00N 39°19' W 074°23'0 0.7
2017-Nov-10 08:28N 39°20' W 074°23'3 6.4
2017-Nov-10 07:56N 39°18' W 074°27'3 6.6
2017-Nov-10 07:31N 39°18' W 074°30'0 0.0
2017-Nov-10 07:00N 39°18' W 074°30'0 0.1
2017-Nov-10 06:30N 39°18' W 074°30'3 5.2
2017-Nov-10 06:01N 39°18' W 074°27'3 0.9
2017-Nov-10 03:13N 39°18' W 074°30'0 0.1
2017-Nov-10 02:29N 39°18' W 074°30'36 2.0
2017-Nov-09 08:39N 38°53' W 075°04'2 9.9
2017-Nov-09 08:30N 38°54' W 075°03'3 1.3
2017-Nov-09 06:09N 38°57' W 075°01'0 0.0
2017-Nov-09 05:42N 38°57' W 075°01'0 0.0
2017-Nov-09 05:18N 38°57' W 075°01'0 0.0
2017-Nov-09 05:00N 38°57' W 075°01'0 0.0
2017-Nov-09 00:48N 38°57' W 075°01'0 0.0
2017-Nov-09 00:23N 38°57' W 075°01'0 0.0
2017-Nov-08 23:48N 38°57' W 075°01'  

Dump ship's entire track history